Hourly Data Report for January 30, 2013

BAGOTVILLE A
QUEBEC

48°20'00.000" N
71°00'00.000" W
159.10 m
7060400
71727
YBG

Download Data

Hourly Data (January 2013)
Hourly Data Report for January 30, 2013
TIME
LST
Temp Definition
°C
Dew Point Definition
°C
Rel Hum Definition
%
Precip. Amount Definition
mm

Wind Dir Definition
10's deg

Wind Spd Definition
km/h
Visibility Definition
km
Stn Press Definition
kPa
Hmdx Definition


Wind Chill Definition


Weather Definition


00:00 -5.5 -9.6 73   9 39 19.3 99.18   -15 Snow
01:00 -5.2 -8.5 78   10 32 19.3 99.02   -13 Freezing Rain
02:00 -4.7 -7.5 81   9 35 24.1 98.88   -13 Cloudy
03:00 -4.1 -7.1 80   9 37 24.1 98.68   -13 Freezing Rain
04:00 -3.6 -6.5 80   9 39 24.1 98.53   -12 Cloudy
05:00 -3.2 -5.7 83   9 35 24.1 98.40   -11 Freezing Rain
06:00 -2.5 -3.9 90   9 30 9.7 98.20   -10 Moderate Freezing Rain, Fog
07:00 -1.8 -2.6 94   9 32 12.9 98.04   -9 Freezing Rain
08:00 -1.0 -2.2 92   9 30 19.3 97.78   -8 Freezing Rain
09:00 -0.1 -0.6 96   9 22 19.3 97.72   -6 Freezing Rain
10:00 0.9 -0.6 90   9 17 19.3 97.57     Rain
11:00 1.5 0.5 93   9 20 9.7 97.36     Rain, Fog
12:00 1.9 1.0 94   10 24 16.1 97.23     Rain
13:00 1.8 1.1 95   10 20 16.1 97.12     Rain
14:00 1.9 1.2 95   11 24 12.9 97.02     Rain
15:00 2.6 2.1 96   9 13 6.4 97.00     Rain, Fog
16:00 1.6 1.1 96   21 6 1.6 97.01     Rain, Fog
17:00 2.2 1.7 96   15 6 1.6 96.98     Rain, Fog
18:00 2.5 2.5 100   30 13 3.2 97.12     Moderate Rain, Fog
19:00 2.2 2.2 100   30 4 1.6 97.04     Rain, Fog
20:00 2.0 1.5 96   25 7 3.2 97.00     Rain, Drizzle, Fog
21:00 1.6 1.4 99   25 6 1.6 97.02     Drizzle, Fog
22:00 2.2 2.2 100   2 6 0.8 96.93     Drizzle, Fog
23:00 2.5 2.5 100   9 6 0.8 96.82     Fog

Notes on Data Quality.

Legend

  • E = Estimated
  • M = Missing
  • NA = Not Available*
  • [empty] = Indicates an unobserved value
Date modified: